AAL1577 KORD-KSAT

Flight info

Callsign AAL1577
Flight time N/A
Altitude 32000
Route ACITO ADELL ARLYN STL FSM WINDU QERVO3
Aircraft B738/M-SDE2E3FGHIRWXY/LB1

Departure

Time 2026-05-06 20:37
Airport Chicago O'Hare International Airport (KORD)

Arrival

Time N/A
Airport San Antonio International Airport (KSAT)
Time Latitude Longitude Altitude Speed Heading
2026-05-06 20:07 41.97518 -87.90833 666 ft 0 kts 182°
2026-05-06 20:08 41.97519 -87.90833 666 ft 0 kts 182°
2026-05-06 20:23 41.97532 -87.90832 666 ft 4 kts 190°
2026-05-06 20:23 41.97557 -87.90821 666 ft 4 kts 210°
2026-05-06 20:23 41.97580 -87.90802 668 ft 4 kts 201°
2026-05-06 20:24 41.97590 -87.90798 666 ft 4 kts 185°
2026-05-06 20:24 41.97598 -87.90810 667 ft 4 kts 286°
2026-05-06 20:24 41.97604 -87.90828 667 ft 4 kts 262°
2026-05-06 20:24 41.97587 -87.90831 665 ft 3 kts 183°
2026-05-06 20:25 41.97583 -87.90831 665 ft 2 kts 180°
2026-05-06 20:27 41.97582 -87.90831 665 ft 1 kts 185°
2026-05-06 20:27 41.97570 -87.90864 667 ft 6 kts 256°
2026-05-06 20:27 41.97557 -87.90917 666 ft 6 kts 249°
2026-05-06 20:27 41.97542 -87.90971 668 ft 6 kts 250°
2026-05-06 20:28 41.97541 -87.91018 668 ft 5 kts 281°
2026-05-06 20:28 41.97557 -87.91071 667 ft 7 kts 298°
2026-05-06 20:28 41.97589 -87.91137 668 ft 10 kts 304°
2026-05-06 20:28 41.97639 -87.91211 668 ft 11 kts 326°
2026-05-06 20:29 41.97712 -87.91246 668 ft 12 kts 347°
2026-05-06 20:29 41.97798 -87.91274 666 ft 14 kts 345°
2026-05-06 20:29 41.97904 -87.91277 668 ft 15 kts 14°
2026-05-06 20:29 41.97969 -87.91244 668 ft 15 kts 22°
2026-05-06 20:30 41.98077 -87.91141 667 ft 14 kts 50°
2026-05-06 20:30 41.98208 -87.90978 668 ft 12 kts 61°
2026-05-06 20:30 41.98247 -87.90878 668 ft 12 kts 66°
2026-05-06 20:31 41.98275 -87.90762 667 ft 14 kts 77°
2026-05-06 20:31 41.98287 -87.90621 667 ft 16 kts 88°
2026-05-06 20:31 41.98288 -87.90478 667 ft 15 kts 90°
2026-05-06 20:31 41.98288 -87.90341 668 ft 14 kts 89°
2026-05-06 20:32 41.98288 -87.90209 668 ft 14 kts 90°
2026-05-06 20:32 41.98293 -87.90084 668 ft 13 kts 67°
2026-05-06 20:32 41.98372 -87.90041 669 ft 13 kts
2026-05-06 20:32 41.98472 -87.90040 669 ft 16 kts 360°
2026-05-06 20:33 41.98597 -87.90040 668 ft 19 kts 360°
2026-05-06 20:33 41.98726 -87.90039 668 ft 18 kts
2026-05-06 20:33 41.98851 -87.90040 668 ft 18 kts 359°
2026-05-06 20:33 41.98972 -87.90038 668 ft 17 kts 360°
2026-05-06 20:34 41.99091 -87.90040 668 ft 17 kts 359°
2026-05-06 20:34 41.99204 -87.90037 668 ft 16 kts 13°
2026-05-06 20:34 41.99291 -87.89956 668 ft 15 kts 39°
2026-05-06 20:34 41.99344 -87.89898 667 ft 15 kts 40°
2026-05-06 20:35 41.99425 -87.89807 668 ft 16 kts 40°
2026-05-06 20:35 41.99515 -87.89709 667 ft 17 kts 40°
2026-05-06 20:35 41.99624 -87.89584 668 ft 9 kts 39°
2026-05-06 20:35 41.99682 -87.89567 666 ft 9 kts 341°
2026-05-06 20:36 41.99715 -87.89637 670 ft 10 kts 271°
2026-05-06 20:36 41.99696 -87.89696 670 ft 10 kts 227°
2026-05-06 20:36 41.99546 -87.89866 669 ft 58 kts 219°
2026-05-06 20:36 41.99058 -87.90404 668 ft 119 kts 219°
2026-05-06 20:37 41.98296 -87.91238 723 ft 162 kts 218°
2026-05-06 20:37 41.97454 -87.92253 1343 ft 166 kts 221°
2026-05-06 20:37 41.96585 -87.93363 1917 ft 177 kts 214°
2026-05-06 20:37 41.95382 -87.93817 2320 ft 194 kts 176°
2026-05-06 20:38 41.93978 -87.93644 2675 ft 210 kts 179°
2026-05-06 20:38 41.92455 -87.93680 3080 ft 228 kts 185°
2026-05-06 20:38 41.90818 -87.93922 3534 ft 247 kts 188°
2026-05-06 20:38 41.89103 -87.94328 4265 ft 251 kts 192°
2026-05-06 20:39 41.87392 -87.94858 4991 ft 253 kts 194°
2026-05-06 20:39 41.85678 -87.95486 5682 ft 257 kts 196°
2026-05-06 20:39 41.83966 -87.96185 6390 ft 260 kts 197°
2026-05-06 20:39 41.82227 -87.96950 7076 ft 263 kts 198°
2026-05-06 20:40 41.80693 -87.97657 7672 ft 265 kts 199°
2026-05-06 20:40 41.78945 -87.98491 8342 ft 268 kts 199°
2026-05-06 20:40 41.77181 -87.99353 9000 ft 271 kts 200°
2026-05-06 20:40 41.75392 -88.00247 9494 ft 279 kts 204°
2026-05-06 20:41 41.73595 -88.01152 10166 ft 280 kts 205°
2026-05-06 20:41 41.71735 -88.02093 10514 ft 295 kts 205°
2026-05-06 20:41 41.69757 -88.03101 10689 ft 314 kts 205°
2026-05-06 20:41 41.67653 -88.04177 10836 ft 334 kts 205°
2026-05-06 20:42 41.65419 -88.05319 10991 ft 351 kts 205°
2026-05-06 20:42 41.63080 -88.06515 11136 ft 367 kts 205°
2026-05-06 20:42 41.60662 -88.07746 11482 ft 375 kts 205°
2026-05-06 20:42 41.58221 -88.08985 12117 ft 375 kts 205°
2026-05-06 20:43 41.55789 -88.10219 12798 ft 374 kts 206°
2026-05-06 20:43 41.53346 -88.11461 13336 ft 377 kts 206°
2026-05-06 20:43 41.50885 -88.12716 13819 ft 382 kts 206°
2026-05-06 20:43 41.48388 -88.13988 14382 ft 384 kts 206°
2026-05-06 20:44 41.45890 -88.15258 14997 ft 385 kts 206°
2026-05-06 20:44 41.43410 -88.16518 15560 ft 387 kts 206°
2026-05-06 20:44 41.40880 -88.17803 16106 ft 390 kts 206°
2026-05-06 20:44 41.38330 -88.19069 16623 ft 393 kts 205°
2026-05-06 20:45 41.35729 -88.20247 17163 ft 395 kts 204°
2026-05-06 20:45 41.33102 -88.21394 17686 ft 397 kts 204°
2026-05-06 20:45 41.30473 -88.22549 18211 ft 398 kts 205°
2026-05-06 20:45 41.27874 -88.23707 18665 ft 400 kts 205°
2026-05-06 20:46 41.25224 -88.24896 19169 ft 401 kts 205°
2026-05-06 20:46 41.22574 -88.26091 19659 ft 402 kts 206°
2026-05-06 20:46 41.19925 -88.27291 20133 ft 403 kts 206°
2026-05-06 20:46 41.17266 -88.28497 20580 ft 404 kts 206°
2026-05-06 20:47 41.14591 -88.29709 20990 ft 406 kts 206°
2026-05-06 20:47 41.11899 -88.30927 21384 ft 408 kts 207°
2026-05-06 20:47 41.09214 -88.32141 21783 ft 409 kts 207°
2026-05-06 20:47 41.06514 -88.33359 22180 ft 410 kts 207°
2026-05-06 20:48 41.03810 -88.34578 22534 ft 411 kts 207°
2026-05-06 20:48 41.01100 -88.35799 22885 ft 412 kts 207°
2026-05-06 20:48 40.98410 -88.37010 23221 ft 413 kts 207°
2026-05-06 20:48 40.95688 -88.38233 23548 ft 415 kts 208°
2026-05-06 20:49 40.92945 -88.39466 23883 ft 415 kts 208°
2026-05-06 20:49 40.90206 -88.40695 24189 ft 417 kts 208°
2026-05-06 20:49 40.87450 -88.41930 24484 ft 418 kts 208°
2026-05-06 20:49 40.84690 -88.43167 24775 ft 419 kts 208°
2026-05-06 20:50 40.81924 -88.44405 25049 ft 420 kts 208°
2026-05-06 20:50 40.79143 -88.45650 25284 ft 422 kts 208°
2026-05-06 20:50 40.76368 -88.46891 25569 ft 422 kts 208°
2026-05-06 20:50 40.73618 -88.48117 25817 ft 422 kts 209°
2026-05-06 20:51 40.70825 -88.49362 26031 ft 423 kts 209°
2026-05-06 20:51 40.68035 -88.50603 26249 ft 423 kts 209°
2026-05-06 20:51 40.65249 -88.51842 26508 ft 422 kts 209°
2026-05-06 20:51 40.62473 -88.53075 26817 ft 419 kts 209°
2026-05-06 20:52 40.59716 -88.54297 27205 ft 415 kts 209°
2026-05-06 20:52 40.56985 -88.55509 27539 ft 413 kts 210°
2026-05-06 20:52 40.54267 -88.56716 27818 ft 411 kts 210°
2026-05-06 20:52 40.51560 -88.57916 28098 ft 409 kts 210°
2026-05-06 20:53 40.48866 -88.59111 28329 ft 409 kts 210°
2026-05-06 20:53 40.46170 -88.60308 28584 ft 408 kts 210°
2026-05-06 20:53 40.43487 -88.61497 28909 ft 405 kts 211°
2026-05-06 20:53 40.40821 -88.62677 29214 ft 403 kts 211°
2026-05-06 20:54 40.38160 -88.63852 29470 ft 402 kts 211°
2026-05-06 20:54 40.35524 -88.65037 29726 ft 397 kts 213°
2026-05-06 20:54 40.33121 -88.66561 29997 ft 383 kts 220°
2026-05-06 20:54 40.30873 -88.68396 30305 ft 376 kts 224°
2026-05-06 20:55 40.28802 -88.70423 30576 ft 367 kts 230°
2026-05-06 20:55 40.26965 -88.72696 30807 ft 362 kts 232°
2026-05-06 20:55 40.25169 -88.75003 31009 ft 362 kts 233°
2026-05-06 20:55 40.23378 -88.77314 31205 ft 362 kts 233°
2026-05-06 20:56 40.21584 -88.79627 31458 ft 361 kts 233°
2026-05-06 20:56 40.19798 -88.81925 31756 ft 359 kts 233°
2026-05-06 20:56 40.18019 -88.84207 31984 ft 358 kts 233°
2026-05-06 20:57 40.14457 -88.88769 32057 ft 358 kts 233°
2026-05-06 20:57 40.10905 -88.93301 32066 ft 356 kts 233°
2026-05-06 20:58 40.07354 -88.97820 32067 ft 355 kts 233°
2026-05-06 20:58 40.03835 -89.02292 32071 ft 355 kts 233°
2026-05-06 20:59 40.00282 -89.06802 32066 ft 355 kts 233°
2026-05-06 20:59 39.96738 -89.11290 32069 ft 354 kts 233°
2026-05-06 21:00 39.93228 -89.15734 32063 ft 353 kts 233°
2026-05-06 21:00 39.89700 -89.20193 32064 ft 352 kts 233°
2026-05-06 21:01 39.86183 -89.24631 32065 ft 352 kts 233°
2026-05-06 21:01 39.82668 -89.29060 32064 ft 352 kts 233°
2026-05-06 21:02 39.79145 -89.33495 32066 ft 352 kts 233°
2026-05-06 21:02 39.75645 -89.37889 32073 ft 352 kts 233°
2026-05-06 21:03 39.72119 -89.42311 32077 ft 352 kts 232°
2026-05-06 21:03 39.68604 -89.46710 32070 ft 349 kts 232°
2026-05-06 21:04 39.65118 -89.51067 32075 ft 347 kts 232°
2026-05-06 21:04 39.61665 -89.55381 32072 ft 346 kts 232°
2026-05-06 21:05 39.58198 -89.59705 32073 ft 345 kts 232°
2026-05-06 21:05 39.54733 -89.64018 32074 ft 345 kts 232°
2026-05-06 21:06 39.51268 -89.68326 32077 ft 345 kts 232°
2026-05-06 21:06 39.47796 -89.72634 32079 ft 345 kts 232°
2026-05-06 21:07 39.44325 -89.76937 32085 ft 346 kts 232°
2026-05-06 21:07 39.40850 -89.81238 32084 ft 346 kts 232°
2026-05-06 21:08 39.37360 -89.85552 32084 ft 346 kts 232°
2026-05-06 21:08 39.33901 -89.89823 32085 ft 347 kts 232°
2026-05-06 21:09 39.30398 -89.94139 32084 ft 348 kts 232°
2026-05-06 21:09 39.26892 -89.98453 32082 ft 348 kts 232°
2026-05-06 21:10 39.23389 -90.02756 32089 ft 348 kts 231°
2026-05-06 21:10 39.19885 -90.07055 32079 ft 347 kts 231°
2026-05-06 21:11 39.16380 -90.11348 32072 ft 347 kts 231°
2026-05-06 21:11 39.12880 -90.15630 32076 ft 347 kts 231°
2026-05-06 21:12 39.09419 -90.19860 32085 ft 347 kts 231°
2026-05-06 21:12 39.05902 -90.24152 32081 ft 347 kts 231°
2026-05-06 21:13 39.02387 -90.28433 32085 ft 347 kts 231°
2026-05-06 21:13 38.98877 -90.32702 32075 ft 348 kts 231°
2026-05-06 21:14 38.95360 -90.36975 32071 ft 347 kts 231°
2026-05-06 21:14 38.91846 -90.41238 32079 ft 347 kts 231°
2026-05-06 21:15 38.88347 -90.45479 32073 ft 348 kts 231°
2026-05-06 21:15 38.84812 -90.49729 32076 ft 349 kts 231°
2026-05-06 21:16 38.81210 -90.53918 32075 ft 350 kts 230°
2026-05-06 21:16 38.77591 -90.58094 32074 ft 350 kts 230°
2026-05-06 21:17 38.74004 -90.62239 32073 ft 350 kts 230°
2026-05-06 21:17 38.70395 -90.66415 32075 ft 349 kts 230°
2026-05-06 21:18 38.66788 -90.70581 32075 ft 349 kts 230°
2026-05-06 21:18 38.63169 -90.74755 32074 ft 349 kts 230°
2026-05-06 21:19 38.59562 -90.78913 32076 ft 349 kts 230°
2026-05-06 21:19 38.55945 -90.83074 32074 ft 350 kts 230°
2026-05-06 21:20 38.52352 -90.87206 32071 ft 349 kts 230°
2026-05-06 21:20 38.48735 -90.91356 32074 ft 349 kts 230°
2026-05-06 21:21 38.45115 -90.95508 32074 ft 350 kts 230°
2026-05-06 21:21 38.41495 -90.99652 32077 ft 350 kts 230°
2026-05-06 21:22 38.37875 -91.03789 32086 ft 350 kts 230°
2026-05-06 21:22 38.34252 -91.07922 32092 ft 350 kts 230°
2026-05-06 21:23 38.31241 -91.11355 32098 ft 350 kts 230°
2026-05-06 21:23 38.27018 -91.16162 32101 ft 350 kts 230°
2026-05-06 21:24 38.23970 -91.19624 32099 ft 351 kts 230°
2026-05-06 21:24 38.20331 -91.23755 32106 ft 350 kts 230°
2026-05-06 21:25 38.16715 -91.27855 32106 ft 350 kts 230°
2026-05-06 21:25 38.13066 -91.31986 32100 ft 350 kts 230°
2026-05-06 21:26 38.09430 -91.36096 32084 ft 349 kts 230°
2026-05-06 21:26 38.05799 -91.40195 32092 ft 349 kts 230°
2026-05-06 21:27 38.02174 -91.44282 32094 ft 348 kts 230°
2026-05-06 21:27 37.98572 -91.48339 32086 ft 349 kts 230°
2026-05-06 21:28 37.94941 -91.52422 32090 ft 349 kts 230°
2026-05-06 21:28 37.91299 -91.56510 32095 ft 350 kts 229°
2026-05-06 21:29 37.87655 -91.60595 32075 ft 350 kts 229°
2026-05-06 21:29 37.84010 -91.64674 32083 ft 350 kts 229°
2026-05-06 21:30 37.80359 -91.68757 32079 ft 350 kts 229°
2026-05-06 21:30 37.76708 -91.72833 32074 ft 350 kts 229°
2026-05-06 21:31 37.73071 -91.76890 32076 ft 351 kts 229°
2026-05-06 21:31 37.69416 -91.80959 32067 ft 351 kts 229°
2026-05-06 21:32 37.65746 -91.85040 32068 ft 351 kts 229°
2026-05-06 21:32 37.60250 -91.91142 32060 ft 351 kts 229°
2026-05-06 21:33 37.56578 -91.95210 32061 ft 351 kts 229°
2026-05-06 21:33 37.52925 -91.99251 32069 ft 351 kts 229°
2026-05-06 21:34 37.49254 -92.03301 32065 ft 351 kts 229°
2026-05-06 21:34 37.45585 -92.07353 32067 ft 351 kts 229°
2026-05-06 21:35 37.41912 -92.11405 32069 ft 351 kts 229°
2026-05-06 21:35 37.38233 -92.15458 32060 ft 352 kts 229°
2026-05-06 21:36 37.34548 -92.19510 32065 ft 352 kts 229°
2026-05-06 21:36 37.30854 -92.23561 32073 ft 352 kts 229°
2026-05-06 21:37 37.27181 -92.27587 32071 ft 353 kts 229°
2026-05-06 21:37 37.23473 -92.31648 32079 ft 353 kts 229°
2026-05-06 21:38 37.19758 -92.35710 32074 ft 354 kts 229°
2026-05-06 21:38 37.16042 -92.39769 32075 ft 354 kts 229°
2026-05-06 21:39 37.12314 -92.43832 32078 ft 355 kts 229°
2026-05-06 21:39 37.08611 -92.47863 32076 ft 356 kts 229°
2026-05-06 21:40 37.04870 -92.51929 32082 ft 356 kts 229°
2026-05-06 21:40 37.01120 -92.55995 32076 ft 357 kts 228°
2026-05-06 21:41 36.97366 -92.60066 32073 ft 357 kts 228°
2026-05-06 21:41 36.93603 -92.64146 32078 ft 358 kts 229°
2026-05-06 21:42 36.89833 -92.68224 32074 ft 358 kts 228°
2026-05-06 21:42 36.86088 -92.72268 32085 ft 358 kts 228°
2026-05-06 21:43 36.82306 -92.76348 32081 ft 358 kts 228°
2026-05-06 21:43 36.78531 -92.80414 32090 ft 358 kts 228°
2026-05-06 21:44 36.74763 -92.84467 32076 ft 358 kts 228°
2026-05-06 21:44 36.70986 -92.88525 32078 ft 358 kts 228°
2026-05-06 21:45 36.67233 -92.92549 32093 ft 358 kts 228°
2026-05-06 21:45 36.63453 -92.96599 32071 ft 358 kts 228°
2026-05-06 21:46 36.59673 -93.00633 32081 ft 358 kts 228°
2026-05-06 21:46 36.55890 -93.04676 32085 ft 358 kts 228°
2026-05-06 21:47 36.52103 -93.08719 32078 ft 359 kts 228°
2026-05-06 21:47 36.48319 -93.12755 32090 ft 358 kts 228°
2026-05-06 21:48 36.44524 -93.16790 32091 ft 359 kts 228°
2026-05-06 21:48 36.40766 -93.20806 32091 ft 360 kts 227°
2026-05-06 21:49 36.36950 -93.24848 32078 ft 361 kts 227°
2026-05-06 21:49 36.33125 -93.28898 32073 ft 362 kts 227°
2026-05-06 21:50 36.29294 -93.32949 32076 ft 361 kts 227°
2026-05-06 21:50 36.25471 -93.36988 32066 ft 361 kts 227°
2026-05-06 21:51 36.21637 -93.41035 32062 ft 362 kts 227°
2026-05-06 21:51 36.17797 -93.45083 32067 ft 363 kts 227°
2026-05-06 21:52 36.13949 -93.49132 32068 ft 363 kts 227°
2026-05-06 21:52 36.10122 -93.53158 32063 ft 363 kts 227°
2026-05-06 21:53 36.06269 -93.57204 32059 ft 363 kts 227°
2026-05-06 21:53 36.02403 -93.61258 32059 ft 364 kts 227°
2026-05-06 21:54 35.98548 -93.65303 32059 ft 363 kts 227°
2026-05-06 21:54 35.94687 -93.69329 32054 ft 365 kts 227°
2026-05-06 21:55 35.90835 -93.73354 32049 ft 365 kts 227°
2026-05-06 21:55 35.86927 -93.77434 32053 ft 366 kts 227°
2026-05-06 21:56 35.83058 -93.81465 32049 ft 367 kts 227°
2026-05-06 21:56 35.79152 -93.85527 32051 ft 367 kts 227°
2026-05-06 21:57 35.75250 -93.89579 32052 ft 367 kts 227°
2026-05-06 21:57 35.71368 -93.93605 32043 ft 367 kts 226°
2026-05-06 21:58 35.67464 -93.97648 32056 ft 367 kts 227°
2026-05-06 21:58 35.63559 -94.01689 32036 ft 367 kts 227°
2026-05-06 21:59 35.59654 -94.05725 32030 ft 367 kts 226°
2026-05-06 21:59 35.55747 -94.09758 32034 ft 366 kts 227°
2026-05-06 22:00 35.51845 -94.13785 32036 ft 367 kts 227°
2026-05-06 22:00 35.47927 -94.17823 32029 ft 367 kts 226°
2026-05-06 22:01 35.44020 -94.21842 32030 ft 366 kts 226°
2026-05-06 22:01 35.40131 -94.25832 32022 ft 367 kts 226°
2026-05-06 22:02 35.35907 -94.29469 32037 ft 374 kts 220°
2026-05-06 22:02 35.31489 -94.32833 32041 ft 374 kts 220°
2026-05-06 22:03 35.27066 -94.36207 32038 ft 375 kts 220°
2026-05-06 22:03 35.22624 -94.39603 32035 ft 376 kts 220°
2026-05-06 22:04 35.18214 -94.42975 32039 ft 376 kts 220°
2026-05-06 22:04 35.13771 -94.46368 32050 ft 377 kts 220°
2026-05-06 22:05 35.09314 -94.49769 32045 ft 378 kts 220°
2026-05-06 22:05 35.04846 -94.53172 32054 ft 379 kts 220°
2026-05-06 22:06 35.00373 -94.56576 32055 ft 379 kts 220°
2026-05-06 22:06 34.95878 -94.59991 32059 ft 380 kts 220°
2026-05-06 22:07 34.91416 -94.63378 32054 ft 380 kts 220°
2026-05-06 22:07 34.86915 -94.66788 32055 ft 381 kts 219°
2026-05-06 22:08 34.82419 -94.70190 32058 ft 381 kts 219°
2026-05-06 22:08 34.77909 -94.73600 32053 ft 382 kts 219°
2026-05-06 22:09 34.73386 -94.77014 32054 ft 381 kts 219°
2026-05-06 22:09 34.68905 -94.80393 32048 ft 382 kts 219°
2026-05-06 22:10 34.64389 -94.83794 32048 ft 382 kts 219°
2026-05-06 22:10 34.59847 -94.87161 32051 ft 382 kts 219°
2026-05-06 22:11 34.55328 -94.90572 32051 ft 382 kts 219°
2026-05-06 22:11 34.50807 -94.93986 32044 ft 383 kts 219°
2026-05-06 22:12 34.47043 -94.96812 32044 ft 383 kts 219°
2026-05-06 22:12 34.42513 -95.00204 32044 ft 382 kts 219°
2026-05-06 22:13 34.37994 -95.03574 32053 ft 380 kts 219°
2026-05-06 22:13 34.33487 -95.06940 32054 ft 380 kts 219°
2026-05-06 22:14 34.28980 -95.10303 32044 ft 381 kts 219°
2026-05-06 22:14 34.24468 -95.13664 32043 ft 381 kts 219°
2026-05-06 22:15 34.19986 -95.16997 32050 ft 381 kts 219°
2026-05-06 22:15 34.15476 -95.20346 32045 ft 380 kts 219°
2026-05-06 22:16 34.10958 -95.23697 32045 ft 381 kts 219°
2026-05-06 22:16 34.06434 -95.27052 32046 ft 381 kts 219°
2026-05-06 22:17 34.01942 -95.30373 32036 ft 380 kts 219°
2026-05-06 22:17 33.97421 -95.33712 32033 ft 381 kts 219°
2026-05-06 22:18 33.92891 -95.37056 32040 ft 382 kts 218°
2026-05-06 22:18 33.88336 -95.40413 32040 ft 384 kts 218°
2026-05-06 22:19 33.83778 -95.43768 32037 ft 385 kts 218°
2026-05-06 22:19 33.79207 -95.47128 32030 ft 385 kts 219°
2026-05-06 22:20 33.74671 -95.50456 32028 ft 384 kts 218°
2026-05-06 22:20 33.70107 -95.53801 32025 ft 384 kts 218°
2026-05-06 22:21 33.65552 -95.57138 32028 ft 384 kts 218°
2026-05-06 22:21 33.60983 -95.60480 32028 ft 384 kts 218°
2026-05-06 22:22 33.56421 -95.63812 32030 ft 384 kts 218°
2026-05-06 22:22 33.51851 -95.67146 32031 ft 384 kts 218°
2026-05-06 22:23 33.47277 -95.70481 32029 ft 385 kts 218°
2026-05-06 22:23 33.42728 -95.73792 32029 ft 385 kts 218°
2026-05-06 22:24 33.38145 -95.77123 32031 ft 385 kts 218°
2026-05-06 22:24 33.33562 -95.80451 32032 ft 386 kts 218°
2026-05-06 22:25 33.28988 -95.83766 32030 ft 386 kts 218°
2026-05-06 22:25 33.24387 -95.87098 32018 ft 387 kts 218°
2026-05-06 22:26 33.19768 -95.90439 32016 ft 388 kts 218°
2026-05-06 22:26 33.15151 -95.93774 32020 ft 389 kts 218°
2026-05-06 22:27 33.10511 -95.97121 32012 ft 390 kts 218°
2026-05-06 22:27 33.05859 -96.00474 32009 ft 391 kts 218°
2026-05-06 22:28 33.01199 -96.03825 32007 ft 391 kts 218°
2026-05-06 22:28 32.96568 -96.07152 32009 ft 391 kts 218°
2026-05-06 22:29 32.91897 -96.10506 32006 ft 392 kts 218°
2026-05-06 22:29 32.87221 -96.13859 32010 ft 392 kts 218°
2026-05-06 22:30 32.82540 -96.17213 32003 ft 393 kts 218°
2026-05-06 22:30 32.77870 -96.20553 32002 ft 394 kts 218°
2026-05-06 22:31 32.73157 -96.23918 31998 ft 395 kts 218°
2026-05-06 22:31 32.68440 -96.27282 31999 ft 396 kts 218°
2026-05-06 22:32 32.63711 -96.30652 32001 ft 396 kts 218°
2026-05-06 22:32 32.58973 -96.34026 32000 ft 397 kts 218°
2026-05-06 22:33 32.54233 -96.37393 32010 ft 397 kts 218°
2026-05-06 22:33 32.49477 -96.40769 32011 ft 398 kts 218°
2026-05-06 22:34 32.44748 -96.44121 32008 ft 398 kts 218°
2026-05-06 22:34 32.39990 -96.47490 32010 ft 399 kts 218°
2026-05-06 22:35 32.35222 -96.50862 32006 ft 399 kts 218°
2026-05-06 22:35 32.30457 -96.54227 31991 ft 399 kts 218°
2026-05-06 22:36 32.25693 -96.57588 32002 ft 398 kts 218°
2026-05-06 22:36 32.20925 -96.60947 31999 ft 399 kts 218°
2026-05-06 22:37 32.16187 -96.64282 32000 ft 399 kts 218°
2026-05-06 22:37 32.11419 -96.67634 32000 ft 398 kts 218°
2026-05-06 22:38 32.06652 -96.70981 31989 ft 399 kts 217°
2026-05-06 22:38 32.01885 -96.74323 31989 ft 398 kts 217°
2026-05-06 22:39 31.97122 -96.77659 31986 ft 398 kts 217°
2026-05-06 22:39 31.92343 -96.81002 31998 ft 401 kts 217°
2026-05-06 22:40 31.87568 -96.84338 31998 ft 403 kts 217°
2026-05-06 22:40 31.82738 -96.87707 31992 ft 404 kts 217°
2026-05-06 22:41 31.75490 -96.92755 31990 ft 404 kts 217°
2026-05-06 22:42 31.70659 -96.96116 31998 ft 404 kts 217°
2026-05-06 22:42 31.65825 -96.99474 31999 ft 403 kts 217°
2026-05-06 22:43 31.61001 -97.02822 32000 ft 403 kts 217°
2026-05-06 22:43 31.56163 -97.06178 32001 ft 403 kts 217°
2026-05-06 22:44 31.51154 -97.09224 32003 ft 413 kts 207°
2026-05-06 22:44 31.45705 -97.11285 32007 ft 414 kts 206°
2026-05-06 22:45 31.40214 -97.13347 31998 ft 414 kts 206°
2026-05-06 22:45 31.34742 -97.15460 31999 ft 414 kts 206°
2026-05-06 22:46 31.29277 -97.17591 32001 ft 414 kts 206°
2026-05-06 22:46 31.23817 -97.19716 32000 ft 414 kts 206°
2026-05-06 22:47 31.18345 -97.21843 31998 ft 414 kts 206°
2026-05-06 22:47 31.12892 -97.23970 32004 ft 413 kts 206°
2026-05-06 22:48 31.07426 -97.26100 32001 ft 413 kts 206°
2026-05-06 22:48 31.01971 -97.28223 31999 ft 413 kts 206°
2026-05-06 22:49 30.96508 -97.30346 32001 ft 414 kts 206°
2026-05-06 22:49 30.91044 -97.32466 31999 ft 414 kts 206°
2026-05-06 22:50 30.85577 -97.34586 32003 ft 414 kts 206°
2026-05-06 22:50 30.80139 -97.36692 32000 ft 415 kts 206°
2026-05-06 22:51 30.74660 -97.38812 32000 ft 415 kts 206°
2026-05-06 22:51 30.69170 -97.40932 32007 ft 415 kts 206°
2026-05-06 22:52 30.63680 -97.43051 32018 ft 415 kts 206°
2026-05-06 22:52 30.58185 -97.45169 32020 ft 416 kts 206°
2026-05-06 22:53 30.52692 -97.47287 31362 ft 422 kts 205°
2026-05-06 22:53 30.49922 -97.48350 30600 ft 419 kts 205°
2026-05-06 22:53 30.47163 -97.49410 29801 ft 418 kts 205°
2026-05-06 22:53 30.44395 -97.50474 28929 ft 419 kts 205°
2026-05-06 22:54 30.41621 -97.51539 28011 ft 421 kts 205°
2026-05-06 22:54 30.38833 -97.52612 27045 ft 423 kts 205°
2026-05-06 22:54 30.36145 -97.53960 26005 ft 420 kts 214°
2026-05-06 22:54 30.33653 -97.55701 25202 ft 416 kts 216°
2026-05-06 22:55 30.31202 -97.57459 24483 ft 412 kts 216°
2026-05-06 22:55 30.28774 -97.59193 23779 ft 408 kts 215°
2026-05-06 22:55 30.26364 -97.60897 23092 ft 404 kts 215°
2026-05-06 22:55 30.23965 -97.62576 22415 ft 401 kts 214°
2026-05-06 22:56 30.21618 -97.64208 21742 ft 397 kts 214°
2026-05-06 22:56 30.19256 -97.65842 21069 ft 394 kts 214°
2026-05-06 22:56 30.16915 -97.67459 20407 ft 390 kts 214°
2026-05-06 22:56 30.14594 -97.69061 19751 ft 387 kts 214°
2026-05-06 22:57 30.12284 -97.70653 19093 ft 384 kts 214°
2026-05-06 22:57 30.10005 -97.72223 18446 ft 381 kts 214°
2026-05-06 22:57 30.07737 -97.73785 17802 ft 378 kts 214°
2026-05-06 22:57 30.05491 -97.75331 17162 ft 375 kts 214°
2026-05-06 22:58 30.03241 -97.76878 16519 ft 373 kts 214°
2026-05-06 22:58 30.01018 -97.78407 15944 ft 370 kts 213°
2026-05-06 22:58 29.98819 -97.79921 15340 ft 367 kts 213°
2026-05-06 22:58 29.96626 -97.81429 14713 ft 366 kts 213°
2026-05-06 22:59 29.94439 -97.82931 14066 ft 365 kts 213°
2026-05-06 22:59 29.92290 -97.84406 13718 ft 357 kts 214°
2026-05-06 22:59 29.90410 -97.86158 13538 ft 342 kts 230°
2026-05-06 22:59 29.89074 -97.88361 13398 ft 330 kts 242°
2026-05-06 23:00 29.88187 -97.90751 13257 ft 320 kts 249°
2026-05-06 23:00 29.87439 -97.93121 13118 ft 310 kts 249°
2026-05-06 23:00 29.86711 -97.95424 12949 ft 303 kts 249°
2026-05-06 23:00 29.86225 -97.96926 12768 ft 301 kts 248°
2026-05-06 23:01 29.85473 -97.99201 12541 ft 307 kts 248°
2026-05-06 23:01 29.84698 -98.01514 12279 ft 312 kts 247°
2026-05-06 23:01 29.83640 -98.03690 11988 ft 312 kts 231°
2026-05-06 23:01 29.82097 -98.05440 11744 ft 311 kts 223°
2026-05-06 23:02 29.80465 -98.07072 11476 ft 310 kts 222°
2026-05-06 23:02 29.78832 -98.08681 11209 ft 309 kts 222°
2026-05-06 23:02 29.77208 -98.10286 10946 ft 305 kts 222°
2026-05-06 23:02 29.75619 -98.11866 10689 ft 299 kts 222°
2026-05-06 23:03 29.74061 -98.13422 10436 ft 294 kts 222°
2026-05-06 23:03 29.72535 -98.14953 10189 ft 289 kts 222°
2026-05-06 23:03 29.71035 -98.16460 9975 ft 283 kts 222°
2026-05-06 23:03 29.69586 -98.17918 9898 ft 273 kts 222°
2026-05-06 23:04 29.68145 -98.19367 9557 ft 273 kts 222°
2026-05-06 23:04 29.66716 -98.20804 9269 ft 272 kts 221°
2026-05-06 23:04 29.65308 -98.22219 9038 ft 268 kts 221°
2026-05-06 23:04 29.63900 -98.23634 8807 ft 267 kts 221°
2026-05-06 23:05 29.62508 -98.25031 8690 ft 263 kts 221°
2026-05-06 23:05 29.61153 -98.26392 8568 ft 261 kts 221°
2026-05-06 23:05 29.59780 -98.27769 8383 ft 264 kts 221°
2026-05-06 23:05 29.58379 -98.29174 8157 ft 269 kts 221°
2026-05-06 23:06 29.56962 -98.30594 7925 ft 271 kts 221°
2026-05-06 23:06 29.55542 -98.32017 7661 ft 269 kts 221°
2026-05-06 23:06 29.54142 -98.33421 7408 ft 266 kts 221°
2026-05-06 23:06 29.52754 -98.34812 7174 ft 262 kts 221°
2026-05-06 23:07 29.51389 -98.36178 6941 ft 258 kts 221°
2026-05-06 23:07 29.50040 -98.37526 6708 ft 256 kts 221°
2026-05-06 23:07 29.48703 -98.38861 6473 ft 253 kts 221°
2026-05-06 23:07 29.47384 -98.40180 6231 ft 251 kts 221°
2026-05-06 23:08 29.46065 -98.41480 5952 ft 249 kts 220°
2026-05-06 23:08 29.44749 -98.42773 5684 ft 248 kts 221°
2026-05-06 23:08 29.43441 -98.44065 5438 ft 247 kts 221°
2026-05-06 23:08 29.42145 -98.45358 5186 ft 246 kts 221°
2026-05-06 23:09 29.40844 -98.46642 4984 ft 254 kts 221°
2026-05-06 23:09 29.39543 -98.47974 4769 ft 246 kts 223°
2026-05-06 23:09 29.38305 -98.49262 4562 ft 235 kts 223°
2026-05-06 23:09 29.37122 -98.50478 4421 ft 221 kts 224°
2026-05-06 23:10 29.36031 -98.51636 4334 ft 209 kts 223°
2026-05-06 23:10 29.35070 -98.52850 4285 ft 205 kts 245°
2026-05-06 23:10 29.34862 -98.54419 4254 ft 199 kts 283°
2026-05-06 23:10 29.35511 -98.55753 4210 ft 192 kts 320°
2026-05-06 23:11 29.36700 -98.56395 4112 ft 186 kts 343°
2026-05-06 23:11 29.37898 -98.56816 3975 ft 174 kts 342°